This demonstration page uses our WeatherBlox Daily Observations layout. Learn more.

Left ArrowRight Arrow

47.50024, -111.30081

Hourly Observations for April 15, 2016

Temp ( °F °C ) Dew Point ( °F °C ) Humidity (%) Winds ( mph kmh ) Pressure ( in mb ) Visibility ( mi km ) Precip ( " mm )
12:53 am 00:53 Cloudy with Light Snow 34 1.1 32 0 92 92 W 13 20 29.79 1009 5 8 0.07 1.78
1:19 am 01:19 Cloudy with Light Snow 33 0.6 31 -0.6 92 92 WNW 16 26 29.80 1009 2 3 0.03 0.76
1:30 am 01:30 Cloudy with Light Snow 32 0 30 -1 93 93 WNW 16 26 29.80 1009 1 2 0.00 0.00
1:45 am 01:45 Cloudy with Light Snow 32 0 31 -0.6 96 96 WNW 16 26 29.80 1009 1 1 0.06 1.52
1:53 am 01:53 Mostly Cloudy with Light Snow 32 0 31 -0.6 96 96 WNW 16 26 29.79 1009 1 2 0.07 1.78
2:51 am 02:51 Windy with Snow Likely 32 0 30 -1 93 93 WNW 20 31 29.80 1009 1 1 0.07 1.78
2:53 am 02:53 Windy with Snow Likely 32 0 31 -0.6 96 96 WNW 21 33 29.78 1009 1 1 0.07 1.78
3:53 am 03:53 Windy with Snow Likely 32 0 31 -0.6 96 96 NW 21 33 29.79 1009 1 2 0.04 1.02
4:18 am 04:18 Windy with Snow Likely 32 0 30 -1 93 93 NW 23 37 29.80 1009 1 1 0.00 0.00
4:53 am 04:53 Windy with Snow Likely 32 0 31 -0.6 96 96 NW 26 43 29.80 1009 1 1 0.07 1.78
5:53 am 05:53 Windy with Snow Likely 32 0 31 -0.6 96 96 NW 29 46 29.82 1010 0 0 0.07 1.78
6:53 am 06:53 Mostly Cloudy with Snow 32 0 31 -0.6 96 96 NNW 30 48 29.85 1011 0 0 0.09 2.29
7:53 am 07:53 Mostly Cloudy with Heavy Snow 32 0 32 0 100 100 N 30 48 29.90 1012 0 0 0.13 3.30
8:53 am 08:53 Cloudy with Snow 32 0 32 0 100 100 N 32 52 29.97 1015 0 0 0.04 1.02
9:53 am 09:53 Windy with Snow Likely 32 0 32 0 100 100 N 25 41 30.04 1017 1 1 0.02 0.51
10:31 am 10:31 Mostly Cloudy with Snow 32 0 32 0 100 100 N 23 37 30.06 1018 0 0 0.01 0.25
10:53 am 10:53 Mostly Cloudy with Heavy Snow 32 0 32 0 100 100 N 22 35 30.09 1019 0 0 0.03 0.76
11:53 am 11:53 Cloudy with Snow 32 0 32 0 100 100 N 22 35 30.15 1021 0 0 0.05 1.27
12:53 pm 12:53 Cloudy with Snow 32 0 32 0 100 100 N 24 39 30.20 1023 1 1 0.05 1.27
1:36 pm 13:36 Windy with Snow Likely 33 0.6 33 0.6 100 100 NNW 29 46 30.24 1024 2 2 0.01 0.25
1:53 pm 13:53 Windy with Snow Likely 33 0.6 33 0.6 100 100 NNW 24 39 30.24 1024 2 3 0.01 0.25
2:07 pm 14:07 Windy with Snow Likely 33 0.6 32 0 96 96 NNW 23 37 30.24 1024 2 3 0.00 0.03
2:15 pm 14:15 Windy with Snow Likely 34 1.1 32 0 92 92 NNW 20 31 30.27 1025 3 5 0.00 0.03
2:53 pm 14:53 Cloudy with Light Rain 34 1.1 32 0 92 92 NNW 20 31 30.27 1025 8 13 0.00 0.03
3:53 pm 15:53 Cloudy with Mist and Fog 34 1.1 32 0 92 92 NNW 15 24 30.31 1027 5 8 0.00 0.03
4:12 pm 16:12 Cloudy with Light Snow 34 1 32 0 93 93 NNW 14 22 30.30 1026 2 3 0.00 0.00
4:18 pm 16:18 Cloudy with Light Snow 34 1 32 0 93 93 NNW 15 24 30.30 1026 1 2 0.00 0.00
4:28 pm 16:28 Cloudy with Light Snow 34 1 32 0 93 93 NW 13 20 30.30 1026 1 2 0.00 0.00
4:49 pm 16:49 Cloudy with Light Snow 34 1 32 0 93 93 NNW 12 19 30.30 1026 2 3 0.02 0.51
4:53 pm 16:53 Cloudy with Light Snow 34 1.1 32 0 92 92 NNW 10 17 30.34 1028 2 3 0.02 0.51
5:07 pm 17:07 Cloudy with Light Rain 34 1.1 32 0 92 92 NW 10 17 30.33 1027 4 6 0.00 0.03
5:25 pm 17:25 Cloudy with Light Rain 34 1.1 32 0 92 92 NW 9 15 30.33 1027 5 8 0.01 0.25
5:53 pm 17:53 Cloudy with Light Rain 35 1.7 32 0 89 89 NNW 12 19 30.36 1028 7 11 0.01 0.25
6:53 pm 18:53 Cloudy 35 1.7 32 0 89 89 NNW 5 7 30.37 1028 10 16 0.00 0.03
7:53 pm 19:53 Cloudy 33 0.6 31 -0.6 92 92 WSW 6 9 30.39 1029 8 13 0.00 0.00
8:53 pm 20:53 Cloudy 34 1.1 31 -0.6 89 89 W 9 15 30.40 1030 10 16 0.00 0.00
9:53 pm 21:53 Cloudy 33 0.6 30 -1.1 89 89 SW 6 9 30.41 1030 10 16 0.00 0.00
10:53 pm 22:53 Clear 31 -0.6 29 -1.7 92 92 SSW 9 15 30.41 1030 10 16 0.00 0.00
11:53 pm 23:53 Mostly Cloudy 30 -1.1 28 -2.2 92 92 SSW 12 19 30.41 1030 10 16 0.00 0.00

Powered by AerisWeather